Weather History for Burbank, CA

Change the Weather History Date:

Saturday, January 11, 2014

  Actual Average Record
Temperature  
Mean Temperature 63 °F 55 °F  
Max Temperature 78 °F 68 °F 85 °F (1983)
Min Temperature 47 °F 42 °F 30 °F (1949)
Degree Days  
Heating Degree Days 2 10  
Month to date heating degree days 42 116  
Since 1 July heating degree days 340 683  
Cooling Degree Days 0 0  
Month to date cooling degree days 2 0  
Year to date cooling degree days 2 0  
Growing Degree Days 12 (Base 50)    
Moisture  
Dew Point 40 °F    
Average Humidity 43    
Maximum Humidity 66    
Minimum Humidity 19    
Precipitation  
Precipitation 0.00 in 0.11 in 4.52 in (1995)
Month to date precipitation 0.00 1.22  
Year to date precipitation 0.00 1.22  
Since 1 July precipitation 0.43 5.98  
Sea Level Pressure  
Sea Level Pressure 30.07 in    
Wind  
Wind Speed 2 mph (SSE)    
Max Wind Speed 9 mph    
Max Gust Speed 14 mph    
Visibility 10 miles    
Events      
T = Trace of Precipitation, MM = Missing Value Source: NWS Daily Summary

Daily Weather History Graph

Daily Weather History Graph

Search for Another Location

Airport:

Trip Planner

Search our weather history database for the weather conditions in past years. The results will help you decide how hot, cold, wet, or windy it might be!

Date:

Astronomy

Jan. 11, 2014 Rise Set
Actual Time 6:59 AM PST 5:03 PM PST
Civil Twilight 6:32 AM PST 5:30 PM PST
Nautical Twilight 6:01 AM PST 6:01 PM PST
Astronomical Twilight 5:31 AM PST 6:31 PM PST
Moon 1:49 PM PST (1/11) 3:11 AM PST (1/11)
Length of Visible Light 10h 58m
Length of Day
10h 03m
Waxing Gibbous, 84% of the Moon is Illuminated
Jan 11
Waxing Gibbous
Jan 15
Full
Jan 23
Last Quarter
Jan 30
New
Feb 6
First Quarter

Hourly Weather History & Observations

Time (PST) Temp. Dew Point Humidity Pressure Visibility Wind Dir Wind Speed Gust Speed Precip Events Conditions
12:53 AM 54.0 °F 39.9 °F 59% 30.08 in 9.0 mi Calm Calm - N/A   Clear
1:53 AM 53.1 °F 37.9 °F 57% 30.09 in 10.0 mi Calm Calm - N/A   Clear
2:53 AM 51.1 °F 37.9 °F 61% 30.09 in 10.0 mi Calm Calm - N/A   Clear
3:53 AM 50.0 °F 37.0 °F 61% 30.09 in 10.0 mi Calm Calm - N/A   Clear
4:53 AM 48.9 °F 37.0 °F 64% 30.09 in 10.0 mi Calm Calm - N/A   Clear
5:53 AM 48.9 °F 37.9 °F 66% 30.10 in 10.0 mi Calm Calm - N/A   Clear
6:53 AM 46.9 °F 35.1 °F 63% 30.11 in 10.0 mi Calm Calm - N/A   Clear
7:53 AM 51.1 °F 37.0 °F 59% 30.12 in 10.0 mi Calm Calm - N/A   Clear
8:53 AM 57.0 °F 36.0 °F 45% 30.14 in 10.0 mi Calm Calm - N/A   Clear
9:53 AM 64.0 °F 39.9 °F 41% 30.15 in 8.0 mi Calm Calm - N/A   Clear
10:53 AM 70.0 °F 36.0 °F 29% 30.12 in 10.0 mi Calm Calm - N/A   Clear
11:53 AM 73.9 °F 34.0 °F 23% 30.08 in 10.0 mi Calm Calm - N/A   Clear
12:53 PM 77.0 °F 32.0 °F 19% 30.04 in 10.0 mi Calm Calm - N/A   Clear
1:53 PM 77.0 °F 37.9 °F 24% 30.03 in 10.0 mi SSE 5.8 mph - N/A   Clear
2:53 PM 75.9 °F 41.0 °F 29% 30.01 in 10.0 mi South 6.9 mph - N/A   Clear
3:53 PM 73.0 °F 41.0 °F 31% 30.02 in 10.0 mi South 8.1 mph - N/A   Clear
4:53 PM 69.1 °F 39.9 °F 35% 30.02 in 10.0 mi South 4.6 mph - N/A   Clear
5:53 PM 66.0 °F 46.9 °F 50% 30.03 in 10.0 mi ESE 3.5 mph - N/A   Clear
6:53 PM 63.0 °F 50.0 °F 63% 30.02 in 10.0 mi SE 4.6 mph - N/A   Clear
7:53 PM 61.0 °F 48.0 °F 62% 30.05 in 10.0 mi Calm Calm - N/A   Clear
8:53 PM 60.1 °F 46.0 °F 60% 30.05 in 10.0 mi Calm Calm - N/A   Clear
9:53 PM 57.9 °F 43.0 °F 58% 30.05 in 10.0 mi Calm Calm - N/A   Clear
10:53 PM 57.9 °F 44.1 °F 60% 30.03 in 10.0 mi ESE 3.5 mph - N/A   Clear
11:53 PM 55.9 °F 44.1 °F 64% 30.03 in 9.0 mi Calm Calm - N/A   Clear